sat.trackr.live / text

‹ back to catalog

STARLINK-35480

NORAD 66242 · 2025-245J

PAYLOAD ACTIVE UNKNOWN

§ Identity

Operator
Country
US
Launch date
2025-10-29
Launch site
AFETR
Launch vehicle
Mass (kg)
RCS (m²)

Purposes: comms

External: N2YO · Heavens-Above · Gunter

§ Orbital elements

Epoch: 2026-05-25T02:50:53.838816Z

Period
94.11 min
Inclination
53.1602°
Eccentricity
0.0001601
Mean motion
15.30205521 rev/d
Perigee alt
474.1 km
Apogee alt
476.3 km
Semi-major
6,853.3 km
B*
3.9898e-4
RAAN
289.2072°
Arg perigee
87.6497°
Mean anomaly
272.4687°
Rev number
3,295

§ Raw data

STARLINK-354801 66242U 25245J   26145.11867869  .00011478  00000+0  39898-3 0  99922 66242  53.1602 289.2072 0001601  87.6497 272.4687 15.30205521 32957

JSON: /api/v1/satellites/66242 · /tle

For live sub-satellite position, see the globe view (requires WebGL).

§ Visibility from observer

Set your observer location to see the next 7 days of passes ≥ 10°. The values pass through the URL so the page stays shareable.

No JS? Fill the form by hand. The geolocation button needs JavaScript.